TimeEST,TemperatureF,Dew PointF,Humidity,Sea Level PressureIn,VisibilityMPH,Wind Direction,Wind SpeedMPH,Gust SpeedMPH,PrecipitationIn,Events,Conditions,WindDirDegrees,DateUTC
12:14 AM,26.6,21.2,80,30.03,10.0,NNW,6.9,-,N/A,,Overcast,330,2013-01-01 05:14:00
12:34 AM,26.6,21.2,80,30.04,10.0,NNW,5.8,-,N/A,,Overcast,330,2013-01-01 05:34:00
12:54 AM,26.6,19.4,74,30.03,10.0,NW,5.8,-,N/A,,Overcast,320,2013-01-01 05:54:00
1:14 AM,26.6,19.4,74,30.02,10.0,NNW,5.8,-,N/A,,Overcast,340,2013-01-01 06:14:00
1:34 AM,26.6,19.4,74,30.02,10.0,NNW,8.1,-,N/A,,Overcast,340,2013-01-01 06:34:00
1:55 AM,26.6,19.4,74,30.03,10.0,NW,5.8,-,N/A,,Overcast,320,2013-01-01 06:55:00
2:15 AM,26.6,19.4,74,30.03,10.0,NNW,3.5,-,N/A,,Overcast,340,2013-01-01 07:15:00
2:35 AM,26.6,19.4,74,30.03,10.0,NNW,5.8,-,N/A,,Overcast,330,2013-01-01 07:35:00
2:54 AM,24.8,19.4,80,30.03,10.0,Calm,Calm,-,N/A,,Overcast,0,2013-01-01 07:54:00
3:15 AM,26.6,19.4,74,30.04,10.0,NNW,4.6,-,N/A,,Overcast,330,2013-01-01 08:15:00
3:35 AM,26.6,19.4,74,30.04,10.0,Calm,Calm,-,N/A,,Overcast,0,2013-01-01 08:35:00
3:54 AM,26.6,19.4,74,30.04,10.0,Calm,Calm,-,N/A,,Overcast,0,2013-01-01 08:54:00
4:15 AM,24.8,19.4,80,30.04,10.0,Calm,Calm,-,N/A,,Overcast,0,2013-01-01 09:15:00
4:34 AM,24.8,19.4,80,30.04,10.0,Calm,Calm,-,N/A,,Overcast,0,2013-01-01 09:34:00
5:14 AM,24.8,19.4,80,30.05,10.0,Calm,Calm,-,N/A,,Overcast,0,2013-01-01 10:14:00
5:35 AM,23.0,17.6,80,30.04,10.0,Calm,Calm,-,N/A,,Overcast,0,2013-01-01 10:35:00
6:15 AM,24.8,17.6,74,30.04,10.0,Calm,Calm,-,N/A,,Overcast,0,2013-01-01 11:15:00
6:35 AM,23.0,17.6,80,30.06,10.0,Calm,Calm,-,N/A,,Overcast,0,2013-01-01 11:35:00
7:15 AM,23.0,15.8,74,30.08,10.0,Calm,Calm,-,N/A,,Overcast,0,2013-01-01 12:15:00
7:35 AM,21.2,15.8,80,30.08,10.0,North,3.5,-,N/A,,Overcast,360,2013-01-01 12:35:00
8:14 AM,23.0,15.8,74,30.09,10.0,North,3.5,-,N/A,,Overcast,360,2013-01-01 13:14:00
8:34 AM,23.0,15.8,74,30.10,10.0,Calm,Calm,-,N/A,,Overcast,0,2013-01-01 13:34:00
8:55 AM,23.0,15.8,74,30.12,10.0,Calm,Calm,-,N/A,,Overcast,0,2013-01-01 13:55:00
9:15 AM,23.0,15.8,74,30.12,10.0,North,4.6,-,N/A,,Overcast,10,2013-01-01 14:15:00
9:34 AM,23.0,14.0,68,30.12,10.0,North,6.9,-,N/A,,Overcast,10,2013-01-01 14:34:00
9:55 AM,23.0,14.0,68,30.11,10.0,NNE,6.9,-,N/A,,Overcast,30,2013-01-01 14:55:00
10:15 AM,23.0,14.0,68,30.12,10.0,NNE,8.1,-,N/A,,Overcast,30,2013-01-01 15:15:00
10:35 AM,23.0,15.8,74,30.10,10.0,North,11.5,16.1,N/A,,Overcast,10,2013-01-01 15:35:00
10:55 AM,24.8,15.8,69,30.09,10.0,NNE,12.7,16.1,N/A,,Scattered Clouds,30,2013-01-01 15:55:00
11:15 AM,24.8,15.8,69,30.10,10.0,NE,12.7,17.3,N/A,,Clear,50,2013-01-01 16:15:00
11:34 AM,24.8,15.8,69,30.11,10.0,NE,6.9,-,N/A,,Clear,50,2013-01-01 16:34:00
11:55 AM,24.8,15.8,69,30.10,10.0,North,4.6,-,N/A,,Clear,10,2013-01-01 16:55:00
12:15 PM,24.8,14.0,64,30.10,10.0,North,3.5,-,N/A,,Clear,360,2013-01-01 17:15:00
12:35 PM,24.8,15.8,69,30.10,10.0,Calm,Calm,-,N/A,,Scattered Clouds,0,2013-01-01 17:35:00
12:54 PM,24.8,15.8,69,30.11,10.0,Calm,Calm,-,N/A,,Scattered Clouds,0,2013-01-01 17:54:00
1:14 PM,24.8,15.8,69,30.10,10.0,Calm,Calm,-,N/A,,Mostly Cloudy,0,2013-01-01 18:14:00
1:35 PM,24.8,15.8,69,30.08,10.0,Calm,Calm,-,N/A,,Overcast,0,2013-01-01 18:35:00
1:55 PM,24.8,14.0,64,30.08,10.0,WNW,4.6,-,N/A,,Overcast,300,2013-01-01 18:55:00
2:14 PM,24.8,14.0,64,30.09,10.0,WNW,4.6,-,N/A,,Overcast,290,2013-01-01 19:14:00
2:35 PM,24.8,15.8,69,30.09,10.0,WNW,5.8,-,N/A,,Overcast,300,2013-01-01 19:35:00
3:15 PM,24.8,15.8,69,30.08,10.0,Calm,Calm,-,N/A,,Overcast,0,2013-01-01 20:15:00
3:34 PM,24.8,15.8,69,30.08,10.0,Calm,Calm,-,N/A,,Overcast,0,2013-01-01 20:34:00
3:55 PM,24.8,15.8,69,30.08,10.0,Calm,Calm,-,N/A,,Overcast,0,2013-01-01 20:55:00
4:14 PM,24.8,15.8,69,30.08,10.0,Calm,Calm,-,N/A,,Overcast,0,2013-01-01 21:14:00
4:35 PM,24.8,15.8,69,30.07,10.0,Calm,Calm,-,N/A,,Overcast,0,2013-01-01 21:35:00
4:54 PM,24.8,15.8,69,30.08,10.0,Calm,Calm,-,N/A,,Overcast,0,2013-01-01 21:54:00
5:15 PM,24.8,15.8,69,30.08,10.0,NW,5.8,-,N/A,,Overcast,320,2013-01-01 22:15:00
5:34 PM,24.8,15.8,69,30.07,10.0,WNW,3.5,-,N/A,,Overcast,290,2013-01-01 22:34:00
6:15 PM,24.8,15.8,69,30.07,10.0,NW,6.9,-,N/A,,Overcast,310,2013-01-01 23:15:00
6:34 PM,24.8,15.8,69,30.08,10.0,WNW,4.6,-,N/A,,Overcast,290,2013-01-01 23:34:00
6:55 PM,24.8,15.8,69,30.08,10.0,NW,3.5,-,N/A,,Overcast,310,2013-01-01 23:55:00
7:15 PM,24.8,15.8,69,30.09,10.0,NW,4.6,-,N/A,,Overcast,320,2013-01-02 00:15:00
7:35 PM,24.8,17.6,74,30.09,10.0,West,6.9,-,N/A,,Overcast,270,2013-01-02 00:35:00
7:55 PM,23.0,15.8,74,30.10,10.0,West,8.1,-,N/A,,Overcast,280,2013-01-02 00:55:00
8:15 PM,21.2,15.8,80,30.11,10.0,West,6.9,-,N/A,,Overcast,270,2013-01-02 01:15:00
8:34 PM,21.2,14.0,74,30.11,10.0,WNW,9.2,-,N/A,,Scattered Clouds,300,2013-01-02 01:34:00
8:54 PM,21.2,12.2,68,30.11,10.0,West,8.1,-,N/A,,Scattered Clouds,280,2013-01-02 01:54:00
9:15 PM,21.2,14.0,74,30.11,10.0,WNW,8.1,-,N/A,,Mostly Cloudy,290,2013-01-02 02:15:00
9:35 PM,21.2,12.2,68,30.10,10.0,WNW,8.1,-,N/A,,Mostly Cloudy,290,2013-01-02 02:35:00
9:54 PM,21.2,12.2,68,30.10,10.0,NW,11.5,16.1,N/A,,Mostly Cloudy,310,2013-01-02 02:54:00
10:15 PM,21.2,12.2,68,30.10,10.0,WNW,6.9,-,N/A,,Mostly Cloudy,300,2013-01-02 03:15:00
10:35 PM,21.2,12.2,68,30.10,10.0,WNW,10.4,-,N/A,,Overcast,300,2013-01-02 03:35:00
10:55 PM,19.4,12.2,74,30.09,10.0,NW,6.9,-,N/A,,Overcast,310,2013-01-02 03:55:00
11:15 PM,19.4,12.2,74,30.09,10.0,WNW,4.6,-,N/A,,Scattered Clouds,290,2013-01-02 04:15:00
11:35 PM,19.4,12.2,74,30.10,10.0,West,3.5,-,N/A,,Mostly Cloudy,270,2013-01-02 04:35:00
11:54 PM,19.4,12.2,74,30.10,10.0,West,5.8,-,N/A,,Overcast,280,2013-01-02 04:54:00